Sarasota, FL

8:40 AM EDT on August 21, 2017 (GMT -0400)
Sarasota-bradenton

Weather History for KSRQ - January, 2008

Change the Weather History Date:

Wednesday, January 30, 2008

  Actual Average Record
Temperature  
Mean Temperature 70 °F 62 °F  
Max Temperature 76 °F 72 °F 85 °F (1975)
Min Temperature 63 °F 52 °F 31 °F (1978)
Degree Days  
Heating Degree Days 0 5  
Month to date heating degree days 115 159  
Since 1 July heating degree days 169 314  
Cooling Degree Days 5 2  
Month to date cooling degree days 50 60  
Year to date cooling degree days 50 60  
Growing Degree Days 19 (Base 50)    
Moisture  
Dew Point 58 °F    
Average Humidity 68    
Maximum Humidity 81    
Minimum Humidity 54    
Precipitation  
Precipitation 0.00 in 0.05 in 1.27 in (1926)
Month to date precipitation 2.21 2.43  
Year to date precipitation 2.21 2.43  
Sea Level Pressure  
Sea Level Pressure 30.04 in    
Wind  
Wind Speed 12 mph (South)    
Max Wind Speed 21 mph    
Max Gust Speed 24 mph    
Visibility 10 miles    
Events      
T = Trace of Precipitation, MM = Missing Value Source: NWS Daily Summary

Daily Weather History Graph

Daily Weather History Graph

Search for Another Location

Airport or City:

Trip Planner

Search our weather history database for the weather conditions in past years. The results will help you decide how hot, cold, wet, or windy it might be!

Date:

Astronomy

Jan. 30, 2008 Rise Set
Actual Time 7:17 AM EST 6:09 PM EST
Civil Twilight 6:53 AM EST 6:34 PM EST
Nautical Twilight 6:25 AM EST 7:02 PM EST
Astronomical Twilight 5:57 AM EST 7:29 PM EST
Moon 1:01 AM EST (1/30) 11:51 AM EST (1/30)
Length of Visible Light 11h 40m
Length of Day
10h 51m
Last Quarter, 45% of the Moon is Illuminated
Jan 30
Last Quarter
Feb 6
New
Feb 13
First Quarter
Feb 20
Full
Feb 28
Last Quarter

Hourly Weather History & Observations

Time (EST) Temp. Dew Point Humidity Pressure Visibility Wind Dir Wind Speed Gust Speed Precip Events Conditions
12:53 AM 64.9 °F 55.0 °F 70% 30.03 in 10.0 mi SSE 13.8 mph - N/A   Clear
1:53 AM 64.9 °F 55.9 °F 73% 30.01 in 10.0 mi SSE 10.4 mph - N/A   Scattered Clouds
2:53 AM 64.9 °F 57.0 °F 75% 30.00 in 10.0 mi South 10.4 mph - N/A   Partly Cloudy
3:53 AM 66.0 °F 57.0 °F 73% 29.99 in 10.0 mi South 13.8 mph - N/A   Clear
4:53 AM 66.0 °F 57.0 °F 73% 30.00 in 10.0 mi South 11.5 mph - N/A   Clear
5:53 AM 66.0 °F 57.9 °F 75% 30.02 in 10.0 mi South 10.4 mph - N/A   Mostly Cloudy
6:53 AM 64.9 °F 57.9 °F 78% 30.03 in 10.0 mi South 12.7 mph - N/A   Clear
7:53 AM 66.0 °F 60.1 °F 81% 30.03 in 10.0 mi South 12.7 mph - N/A   Clear
8:53 AM 69.1 °F 59.0 °F 70% 30.04 in 10.0 mi South 13.8 mph - N/A   Clear
9:53 AM 71.1 °F 59.0 °F 66% 30.05 in 10.0 mi South 17.3 mph - N/A   Clear
10:53 AM 73.0 °F 59.0 °F 61% 30.07 in 10.0 mi South 17.3 mph - N/A   Clear
11:53 AM 73.9 °F 60.1 °F 62% 30.06 in 10.0 mi South 15.0 mph - N/A   Clear
12:53 PM 73.9 °F 59.0 °F 59% 30.03 in 10.0 mi South 17.3 mph - N/A   Clear
1:53 PM 75.0 °F 57.9 °F 55% 30.01 in 10.0 mi South 18.4 mph - N/A   Clear
2:53 PM 75.0 °F 57.9 °F 55% 30.00 in 10.0 mi South 17.3 mph - N/A   Clear
4:53 PM 73.0 °F 57.0 °F 57% 30.02 in 10.0 mi South 13.8 mph - N/A   Overcast
5:53 PM 71.1 °F 57.9 °F 63% 30.03 in 10.0 mi South 11.5 mph - N/A   Scattered Clouds
6:53 PM 70.0 °F 57.0 °F 63% 30.05 in 10.0 mi South 11.5 mph - N/A   Clear
7:53 PM 70.0 °F 57.0 °F 63% 30.07 in 10.0 mi South 9.2 mph - N/A   Clear
8:53 PM 69.1 °F 57.0 °F 65% 30.09 in 10.0 mi SSE 8.1 mph - N/A   Clear
9:53 PM 68.0 °F 57.0 °F 68% 30.10 in 10.0 mi South 5.8 mph - N/A   Mostly Cloudy
10:53 PM 63.0 °F 55.9 °F 78% 30.10 in 10.0 mi ESE 4.6 mph - N/A   Clear
11:53 PM 64.9 °F 55.9 °F 73% 30.10 in 10.0 mi SSE 3.5 mph - N/A   Clear